[[{"header":{"parameterUnit":"m.s-1","parameterCategory":1,"la1":30.2991,"la2":30.254,"lo1":-89.0895,"lo2":-89.0444,"dy":0.0017,"dx":0.0017,"nx":28,"ny":28,"refTime":"2025-02-08T03:00:00:Z","depth":0,"parameterNumber":2,"parameterNumberName":"U-component_of_WINDS"},"data":[0,0,0,0,0,0,0,0,0,0,0,0,0,0,0,0,0,0,0,0,0,0,0,0,0,0,0,0,0,0,0,0,0,0,0,0,0,0,0,0,0,0,0,0,0,0,0,0,0,0,0,0,0,0,0,0,0,0,0.0804,0.0804,0,0.0847,0.0848,0.0848,0.0855,0.0854,0.0854,0.0854,0.0901,0.0903,0.0905,0,0,0,0,0,0,0,0,0,0,0,0,0,0.0731,0.0732,0.0804,0.0804,0.0805,0.0847,0.0848,0.0848,0.0855,0.0854,0.0854,0.0853,0.0901,0.0903,0.0905,0,0,0,0,0,0,0,0,0,0,0,0,0,0.0767,0.0733,0.0804,0.0813,0.0815,0.0847,0.0848,0.0848,0.0855,0.0854,0.0854,0.0853,0.09,0.0903,0.0905,0.0932,0,0,0.0913,0.0914,0,0,0,0,0,0,0,0,0.0765,0.077,0.0811,0.0813,0.0814,0.0845,0.0839,0.0877,0.0855,0.084,0.0854,0.0853,0.0883,0.0887,0.0897,0.0934,0.0936,0.0913,0.0914,0.0915,0.0916,0,0,0,0,0,0,0,0.0763,0.0768,0.0821,0.0812,0.0814,0.0817,0.0821,0.0846,0.0864,0.0841,0.0842,0.0846,0.0884,0.0894,0.0898,0.0937,0.0913,0.0915,0.0916,0.0917,0.1,0.1001,0,0,0,0,0,0,0.0758,0.0766,0.082,0.0822,0.0788,0.0818,0.0823,0.0836,0.0864,0.0868,0.0847,0.0847,0.089,0.0895,0.0899,0.0934,0.0915,0.0918,0.0919,0.1,0.1001,0.1001,0,0,0,0,0,0,0.0756,0.0763,0.0818,0.0794,0.0802,0.082,0.0834,0.0837,0.0847,0.0869,0.0872,0.0854,0.089,0.0896,0.0924,0.0936,0.0919,0.0921,0.0999,0.1,0.1001,0.1003,0,0,0,0,0,0,0.0754,0.0762,0.0772,0.0795,0.0803,0.0841,0.0835,0.0838,0.0851,0.0851,0.0876,0.088,0.089,0.092,0.0926,0.0939,0.0923,0.0998,0.0999,0.1001,0.1002,0.1004,0.1005,0,0,0,0,0,0.0752,0.0771,0.0772,0.0778,0.0815,0.0841,0.0846,0.0857,0.0852,0.0862,0.0876,0.0879,0.0933,0.0923,0.093,0.0943,0.0997,0.0999,0.1001,0.1001,0.1003,0.1005,0,0,0,0,0,0,0.075,0.0774,0.0776,0.0802,0.082,0.0842,0.0856,0.0859,0.0879,0.0878,0.0891,0.0897,0.0924,0.0937,0.0925,0.0972,0.0965,0.0968,0.0963,0.0965,0.0967,0.0964,0.0925,0,0,0,0,0,0.0752,0.077,0.0791,0.0813,0.0821,0.0837,0.0849,0.0855,0.0874,0.0882,0.0898,0.0917,0.0938,0.0952,0.0973,0.1003,0.101,0.1016,0.1018,0.1019,0.1022,0.104,0.1044,0.1007,0.1007,0.1007,0,0,0.0758,0.0773,0.0784,0.0813,0.0827,0.0847,0.0843,0.0864,0.0879,0.0885,0.0913,0.0925,0.0947,0.0977,0.099,0.0988,0.1034,0.1021,0.1022,0.1024,0.1042,0.1046,0.1049,0.1008,0.1008,0.1008,0,0,0.0779,0.0792,0.0812,0.0826,0.0847,0.0857,0.0862,0.0884,0.0893,0.092,0.0925,0.0944,0.0981,0.0997,0.101,0.1037,0.1041,0.1044,0.1054,0.1071,0.1074,0.1077,0.1088,0.1092,0.1046,0.1046,0.1046,0,0.0784,0.0812,0.0822,0.0843,0.0856,0.0861,0.0883,0.0896,0.0923,0.0933,0.0929,0.0976,0.0991,0.1025,0.1031,0.1041,0.1048,0.1041,0.1073,0.1076,0.1078,0.1089,0.1093,0.1047,0.1047,0.1046,0.1046,0,0.0818,0.0838,0.0852,0.0877,0.0892,0.0913,0.0927,0.0941,0.0946,0.0957,0.0986,0.1005,0.103,0.1038,0.1044,0.1073,0.1071,0.107,0.1064,0.1082,0.1093,0.1097,0.1047,0.1047,0.1047,0.1047,0,0,0.0839,0.0869,0.0875,0.0887,0.091,0.0927,0.0949,0.0972,0.0985,0.1003,0.1023,0.1054,0.1053,0.1068,0.1076,0.1091,0.1113,0.1088,0.1089,0.1093,0.1149,0.115,0.1155,0.1115,0.1116,0.1117,0.1147,0,0.0864,0.0901,0.0911,0.0944,0.0964,0.0969,0.0989,0.1006,0.1017,0.1037,0.105,0.1072,0.1068,0.1077,0.1092,0.1107,0.1125,0.1105,0.1136,0.1137,0.1131,0.116,0.1162,0.1189,0.1151,0.1152,0.1152,0,0.0897,0.0916,0.0951,0.0973,0.0982,0.0998,0.1022,0.1039,0.106,0.1067,0.1084,0.109,0.1115,0.1106,0.1141,0.1128,0.1141,0.115,0.1152,0.1156,0.1146,0.1166,0.1198,0.1203,0.1159,0.1158,0.1158,0,0.0911,0.0945,0.097,0.098,0.1006,0.1018,0.103,0.105,0.1064,0.1085,0.1094,0.1118,0.1131,0.115,0.1163,0.1155,0.1197,0.119,0.1206,0.1205,0.1215,0.1214,0.125,0.1221,0.1221,0.1221,0.1221,0,0.0938,0.0959,0.0977,0.0992,0.1017,0.1028,0.1053,0.1065,0.1083,0.1102,0.1108,0.1127,0.1142,0.1163,0.1174,0.1202,0.1208,0.1216,0.1218,0.1216,0.1215,0.1225,0.1224,0.1222,0.1222,0.1222,0.1222,0,0.0957,0.0969,0.0998,0.102,0.1026,0.1044,0.1064,0.108,0.1091,0.1116,0.1122,0.1141,0.1166,0.1181,0.1212,0.1219,0.1251,0.1253,0.1244,0.1246,0.1261,0.126,0.1306,0.1314,0.1278,0.1278,0.1279,0,0.0974,0.099,0.1015,0.1028,0.1039,0.106,0.1074,0.1086,0.1101,0.1126,0.114,0.1165,0.1186,0.1226,0.1243,0.1268,0.1271,0.1285,0.1275,0.1272,0.1273,0.1272,0.1275,0.1288,0.1288,0.1288,0.1288,0,0.1003,0.1008,0.1028,0.105,0.1067,0.1085,0.1104,0.1114,0.113,0.1146,0.1172,0.1188,0.122,0.1246,0.1272,0.1285,0.129,0.1291,0.1297,0.1295,0.129,0.1294,0.125,0.129,0.129,0.129,0.129,0.129,0.1023,0.1038,0.1058,0.108,0.1095,0.1112,0.1129,0.1142,0.1163,0.1189,0.1196,0.1223,0.1244,0.128,0.1294,0.1316,0.1314,0.1321,0.1323,0.1325,0.1326,0.1285,0.1321,0.1321,0.1321,0.1321,0.1321,0,0.1053,0.1066,0.1086,0.1112,0.1129,0.1131,0.1151,0.1167,0.119,0.1209,0.1229,0.1259,0.1284,0.1303,0.1329,0.1344,0.1347,0.135,0.135,0.1353,0.1326,0.132,0.1347,0.1347,0.1347,0.1347,0.1347,0.1347,0.1071,0.1098,0.1106,0.114,0.1154,0.1179,0.1191,0.1208,0.1223,0.1256,0.1276,0.1288,0.1308,0.1335,0.1359,0.1364,0.1374,0.1378,0.1383,0.1358,0.1355,0.1352,0.1346,0.1379,0.1379,0.1409,0.1409,0.1409]},{"header":{"parameterUnit":"m.s-1","parameterCategory":1,"la1":30.2991,"la2":30.254,"lo1":-89.0895,"lo2":-89.0444,"dy":0.0017,"dx":0.0017,"nx":28,"ny":28,"refTime":"2025-02-08T03:00:00:Z","depth":0,"parameterNumber":3,"parameterNumberName":"V-component_of_WINDS"},"data":[0,0,0,0,0,0,0,0,0,0,0,0,0,0,0,0,0,0,0,0,0,0,0,0,0,0,0,0,0,0,0,0,0,0,0,0,0,0,0,0,0,0,0,0,0,0,0,0,0,0,0,0,0,0,0,0,0,0,2.246,2.2461,0,2.2611,2.2612,2.2614,2.2629,2.2628,2.2626,2.2624,2.2783,2.2788,2.2794,0,0,0,0,0,0,0,0,0,0,0,0,0,2.2187,2.2192,2.2459,2.2461,2.2463,2.261,2.2612,2.2615,2.2629,2.2627,2.2626,2.2624,2.2781,2.2787,2.2794,0,0,0,0,0,0,0,0,0,0,0,0,0,2.2319,2.2194,2.2459,2.2488,2.2492,2.261,2.2613,2.2615,2.263,2.2627,2.2625,2.2623,2.2778,2.2787,2.2795,2.2895,0,0,2.2821,2.2825,0,0,0,0,0,0,0,0,2.2311,2.2329,2.2482,2.2486,2.2491,2.2599,2.2575,2.2709,2.263,2.2578,2.2624,2.2622,2.2723,2.2736,2.277,2.2902,2.2909,2.2822,2.2827,2.2831,2.2833,0,0,0,0,0,0,0,2.2302,2.2322,2.2519,2.2484,2.249,2.2495,2.2511,2.26,2.2662,2.2582,2.2584,2.2601,2.2726,2.2762,2.2774,2.2912,2.2822,2.2829,2.2835,2.2838,2.3137,2.3139,0,0,0,0,0,0,2.2287,2.2315,2.2515,2.2524,2.2394,2.2502,2.252,2.2567,2.2661,2.2673,2.2603,2.2601,2.2748,2.2764,2.2779,2.2905,2.2831,2.2839,2.2844,2.3134,2.3137,2.314,0,0,0,0,0,0,2.2281,2.2305,2.2508,2.242,2.2446,2.2509,2.2561,2.2571,2.2607,2.2677,2.2688,2.2628,2.2747,2.2767,2.2867,2.2911,2.2843,2.285,2.313,2.3135,2.3139,2.3156,0,0,0,0,0,0,2.2273,2.2303,2.234,2.242,2.2451,2.2592,2.2564,2.2575,2.2621,2.262,2.2704,2.2715,2.2747,2.2854,2.2875,2.2921,2.2857,2.3127,2.3132,2.3137,2.3152,2.316,2.3167,0,0,0,0,0,2.2264,2.2339,2.2342,2.2366,2.2499,2.2594,2.2612,2.2646,2.2625,2.2664,2.2709,2.2713,2.2902,2.2864,2.2888,2.2937,2.3124,2.3131,2.3137,2.3148,2.3158,2.3167,0,0,0,0,0,0,2.2264,2.235,2.2354,2.2458,2.2519,2.2597,2.2647,2.2655,2.2724,2.272,2.276,2.2779,2.2877,2.2917,2.2873,2.304,2.3011,2.3023,2.3011,2.3022,2.3029,2.3019,2.2864,0,0,0,0,0,2.2275,2.2344,2.2417,2.2501,2.2531,2.2584,2.2627,2.2648,2.2713,2.2739,2.2791,2.2855,2.2929,2.2977,2.3049,2.3156,2.3176,2.3202,2.321,2.3216,2.3227,2.3289,2.3302,2.3161,2.3161,2.3161,0,0,2.2301,2.2357,2.2398,2.2503,2.2552,2.2625,2.2606,2.2682,2.2737,2.2751,2.2848,2.2888,2.2963,2.3067,2.3116,2.3103,2.327,2.3224,2.3229,2.3236,2.3297,2.331,2.3322,2.3165,2.3165,2.3164,0,0,2.2385,2.2433,2.251,2.256,2.2635,2.2669,2.2688,2.2765,2.2793,2.289,2.2903,2.2968,2.3094,2.3148,2.3191,2.3296,2.3303,2.3318,2.336,2.3421,2.3432,2.3442,2.3483,2.3496,2.3328,2.3328,2.3328,0,2.2408,2.2517,2.2549,2.2626,2.2673,2.2687,2.2766,2.2813,2.2908,2.2941,2.2925,2.3085,2.3135,2.3254,2.3279,2.3313,2.3337,2.331,2.3427,2.3438,2.3448,2.3487,2.3502,2.3329,2.3329,2.3329,2.3329,0,2.2543,2.2618,2.2671,2.2762,2.2814,2.2892,2.2937,2.2987,2.3003,2.3039,2.314,2.3201,2.3287,2.3316,2.3332,2.3438,2.3428,2.3419,2.3391,2.3463,2.35,2.3515,2.3331,2.3331,2.333,2.333,0,0,2.2633,2.274,2.276,2.2802,2.2886,2.2945,2.3024,2.3107,2.315,2.3215,2.3284,2.339,2.3383,2.3432,2.3455,2.3508,2.3591,2.3493,2.3495,2.3512,2.3714,2.3722,2.3738,2.3594,2.3597,2.3599,2.3708,0,2.2729,2.2869,2.2901,2.3023,2.3094,2.3108,2.3178,2.3238,2.3274,2.3341,2.3381,2.3457,2.344,2.3471,2.3523,2.3569,2.3632,2.3561,2.3662,2.3665,2.3646,2.3758,2.3766,2.3866,2.3723,2.3725,2.3727,0,2.286,2.2928,2.3057,2.3133,2.3164,2.3225,2.3305,2.3368,2.3436,2.3459,2.3514,2.3532,2.3617,2.3582,2.3701,2.3652,2.3695,2.3724,2.3728,2.3742,2.3703,2.3777,2.3899,2.3915,2.375,2.3748,2.3746,0,2.2917,2.304,2.3134,2.3169,2.3259,2.3303,2.3342,2.3408,2.3457,2.3526,2.3559,2.3637,2.3681,2.3742,2.3781,2.3751,2.3898,2.3866,2.3922,2.3921,2.3954,2.3952,2.4088,2.3976,2.3976,2.3976,2.3975,0,2.3023,2.3102,2.3161,2.3219,2.3308,2.3344,2.3432,2.3472,2.3531,2.3598,2.3614,2.3677,2.3723,2.3793,2.3824,2.3919,2.3938,2.3961,2.3969,2.3961,2.3959,2.3992,2.3987,2.398,2.3979,2.3978,2.3977,0,2.3103,2.3144,2.3248,2.3325,2.3346,2.3409,2.3475,2.3533,2.3569,2.3654,2.3676,2.3734,2.3817,2.3861,2.3965,2.3986,2.4094,2.4096,2.4071,2.4075,2.413,2.4125,2.4294,2.4319,2.4188,2.4189,2.419,0,2.3169,2.323,2.3313,2.3359,2.34,2.3473,2.3523,2.356,2.3611,2.3695,2.3743,2.3827,2.3896,2.4029,2.4081,2.4161,2.4168,2.4221,2.418,2.4171,2.4173,2.417,2.4177,2.4229,2.4231,2.4232,2.4232,0,2.3284,2.3302,2.3371,2.345,2.3508,2.3571,2.3634,2.3671,2.3719,2.3776,2.3861,2.3914,2.4021,2.4105,2.4189,2.4232,2.4242,2.4244,2.4262,2.4257,2.4241,2.4254,2.4094,2.4241,2.424,2.424,2.4239,2.4239,2.3361,2.3417,2.3485,2.3563,2.3614,2.3672,2.3731,2.3774,2.3845,2.3935,2.3952,2.4043,2.4112,2.4226,2.4271,2.4343,2.4333,2.4358,2.4365,2.4371,2.4375,2.4227,2.4358,2.4358,2.4358,2.4358,2.4358,0,2.348,2.3524,2.3595,2.3682,2.3744,2.3745,2.3815,2.3868,2.3947,2.4009,2.4077,2.4176,2.4258,2.4316,2.44,2.4447,2.4454,2.4468,2.4467,2.4477,2.4378,2.4356,2.4461,2.4461,2.4461,2.4461,2.4461,2.4461,2.3549,2.3644,2.367,2.3792,2.3836,2.3924,2.3964,2.4019,2.407,2.4179,2.4247,2.4283,2.4345,2.4434,2.451,2.4525,2.4556,2.4571,2.4587,2.4494,2.4484,2.4473,2.4453,2.4577,2.4577,2.468,2.4681,2.4682]}]]